This is the latest recevied weather packets stored in our database for station/object KJ4YLO. If no packets are shown the sender has not sent any weather packets the latest 10 day(s).
| Time | Temp. | Humidity | Pressure | Rain* | Wind** | Luminosity | Snow |
|---|---|---|---|---|---|---|---|
| 1777640487 | 14.44° C | 60% | 1016.3 hPa | 0 mm | - | 116 W/m² | - |
| 1777640183 | 13.89° C | 61% | 1016.3 hPa | 0 mm | - | 108 W/m² | - |
| 1777639880 | 13.89° C | 60% | 1016.3 hPa | 0 mm | - | 104 W/m² | - |
| 1777639577 | 13.89° C | 64% | 1016.6 hPa | 0 mm | - | 98 W/m² | - |
| 1777639274 | 13.33° C | 63% | 1016.3 hPa | 0 mm | - | 90 W/m² | - |
| 1777638970 | 13.33° C | 63% | 1016.3 hPa | 0 mm | - | 86 W/m² | - |
| 1777638666 | 12.78° C | 67% | 1016.3 hPa | 0 mm | - | 80 W/m² | - |
| 1777638363 | 12.78° C | 69% | 1016.3 hPa | 0 mm | - | 69 W/m² | - |
| 1777638059 | 12.22° C | 69% | 1015.9 hPa | 0 mm | - | 58 W/m² | - |
| 1777637755 | 12.22° C | 69% | 1015.9 hPa | 0 mm | - | 59 W/m² | - |
| 1777637452 | 12.22° C | 68% | 1015.9 hPa | 0 mm | - | 59 W/m² | - |
| 1777637149 | 12.22° C | 68% | 1015.9 hPa | 0 mm | - | 41 W/m² | - |
| 1777636846 | 12.22° C | 70% | 1015.9 hPa | 0 mm | - | 38 W/m² | - |
| 1777636541 | 12.22° C | 70% | 1015.9 hPa | 0 mm | - | 45 W/m² | - |
| 1777636238 | 11.67° C | 70% | 1015.9 hPa | 0 mm | - | 46 W/m² | - |
| 1777635938 | 11.67° C | 71% | 1015.9 hPa | 0 mm | - | 37 W/m² | - |
| 1777635634 | 11.67° C | 73% | 1015.5 hPa | 0 mm | - | 36 W/m² | - |
| 1777635331 | 11.11° C | 73% | 1015.5 hPa | 0 mm | - | 44 W/m² | - |
| 1777635027 | 11.11° C | 75% | 1015.9 hPa | 0 mm | - | 36 W/m² | - |
| 1777634723 | 11.11° C | 76% | 1015.5 hPa | 0 mm | - | 21 W/m² | - |
| 1777634421 | 10.56° C | 77% | 1015.5 hPa | 0 mm | - | 19 W/m² | - |
| 1777634118 | 11.11° C | 80% | 1015.5 hPa | 0 mm | - | 18 W/m² | - |
| 1777633815 | 10.56° C | 80% | 1015.5 hPa | 0 mm | - | 11 W/m² | - |
| 1777633512 | 10.56° C | 80% | 1015.9 hPa | 0 mm | - | 5 W/m² | - |
| 1777633210 | 10.56° C | 80% | 1015.5 hPa | 0 mm | - | 3 W/m² | - |
* Rain latest hour (hover to see other rain measurements)
** Current wind speed in m/s (hover to see current wind gust speed)